Date String (YYYY-MM-DD hh:mm:ss) UTC,Instrument flags,Ambient pressure (hPa),Sample flow (lpm),Bypass flow (lpm),Sample temperature (°C),Ambient temperature (°C),ASC tube jacket temperature (°C),LED temperature (°C),Box temperature (°C),Sample RH (%),Span deviation,Mass concentration (μg/m³),Mass concentration (μg/m³),Mass concentration (μg/m³)
DateTimeUTC,F1_M11,P_M11,Q1_M11,Q2_M11,T1_M11,T2_M11,T3_M11,T4_M11,T5_M11,U1_M11,ZSPAN_M11,X0_M11,X2_M11,X1_M11
2022-02-17 23:00:00,,0824.0,5.00,0.00,21.0,20.9,00.0,30.1,22.7,09.0,0000.0,0009.39,0005.21,0004.88
2022-02-17 23:01:00,,0824.1,5.00,0.00,21.2,21.9,00.0,30.2,23.1,08.9,0000.0,0009.67,0005.19,0004.87
2022-02-17 23:02:00,,0824.1,5.01,0.00,21.4,22.7,00.0,30.2,23.4,08.9,0000.0,0009.95,0005.16,0004.87
2022-02-17 23:03:00,,0824.1,5.00,0.00,21.5,22.6,00.0,30.3,23.5,08.8,0000.0,0009.96,0005.13,0004.87
2022-02-17 23:04:00,,0824.1,5.01,0.00,21.5,22.3,00.0,30.3,23.4,08.8,0000.0,0009.74,0005.10,0004.85
2022-02-17 23:05:00,,0824.0,4.99,0.00,21.5,22.0,00.0,30.3,23.3,08.7,0000.0,0009.61,0005.10,0004.85
2022-02-17 23:06:00,,0824.0,5.00,0.00,21.5,21.8,00.0,30.3,23.3,08.8,0000.0,0009.91,0005.12,0004.88
2022-02-17 23:07:00,,0824.1,5.00,0.00,21.5,21.6,00.0,30.3,23.2,08.8,0000.0,0009.68,0005.15,0004.91
2022-02-17 23:08:00,,0824.1,4.99,0.00,21.5,21.5,00.0,30.4,23.2,08.9,0000.0,0009.19,0005.18,0004.92
2022-02-17 23:09:00,,0824.1,5.01,0.00,21.5,21.4,00.0,30.4,23.2,08.9,0000.0,0009.31,0005.21,0004.93
2022-02-17 23:10:00,,0824.1,5.00,0.00,21.5,21.3,00.0,30.4,23.2,08.8,0000.0,0009.30,0005.22,0004.94
2022-02-17 23:11:00,,0824.0,5.00,0.00,21.5,21.2,00.0,30.4,23.2,08.7,0000.0,0009.23,0005.23,0004.95
2022-02-17 23:12:00,,0824.0,4.99,0.00,21.5,21.2,00.0,30.4,23.2,08.7,0000.0,0008.92,0005.23,0004.96
2022-02-17 23:13:00,,0824.1,5.01,0.00,21.5,21.1,00.0,30.4,23.2,08.6,0000.0,0008.70,0005.28,0004.98
2022-02-17 23:14:00,,0824.1,5.00,0.00,21.5,21.1,00.0,30.4,23.2,08.7,0000.0,0008.54,0005.30,0004.98
2022-02-17 23:15:00,,0824.1,4.99,0.00,21.5,21.1,00.0,30.4,23.2,08.8,0000.0,0008.67,0005.35,0005.00
2022-02-17 23:16:00,,0824.1,5.00,0.00,21.5,21.0,00.0,30.4,23.2,08.8,0000.0,0008.70,0005.35,0005.00
2022-02-17 23:17:00,,0824.1,5.00,0.00,21.5,21.0,00.0,30.4,23.2,08.9,0000.0,0008.71,0005.33,0005.00
2022-02-17 23:18:00,,0824.1,5.01,0.00,21.5,21.1,00.0,30.4,23.2,08.9,0000.0,0008.70,0005.33,0005.00
2022-02-17 23:19:00,,0824.1,5.00,0.00,21.5,21.1,00.0,30.4,23.2,08.8,0000.0,0008.73,0005.36,0005.00
2022-02-17 23:20:00,,0824.0,4.99,0.00,21.5,21.1,00.0,30.4,23.2,08.7,0000.0,0008.61,0005.36,0005.03
2022-02-17 23:21:00,,0824.0,5.01,0.00,21.5,21.1,00.0,30.5,23.2,08.8,0000.0,0008.51,0005.34,0005.04
2022-02-17 23:22:00,,0824.0,5.00,0.00,21.5,21.1,00.0,30.5,23.2,08.9,0000.0,0008.61,0005.37,0005.04
2022-02-17 23:23:00,,0823.9,4.99,0.00,21.5,21.1,00.0,30.5,23.2,08.8,0000.0,0008.71,0005.38,0005.05
2022-02-17 23:24:00,,0823.9,4.99,0.00,21.5,21.1,00.0,30.5,23.2,08.8,0000.0,0008.68,0005.37,0005.04
2022-02-17 23:25:00,,0823.9,5.01,0.00,21.6,21.1,00.0,30.5,23.3,08.8,0000.0,0008.65,0005.36,0005.05
2022-02-17 23:26:00,,0823.9,5.01,0.00,21.6,21.1,00.0,30.5,23.3,08.9,0000.0,0008.61,0005.35,0005.05
2022-02-17 23:27:00,,0824.0,5.00,0.00,21.6,21.2,00.0,30.5,23.3,08.7,0000.0,0008.64,0005.37,0005.07
2022-02-17 23:28:00,,0824.0,5.00,0.00,21.6,21.2,00.0,30.5,23.4,08.8,0000.0,0008.23,0005.40,0005.07
2022-02-17 23:29:00,,0824.0,4.99,0.00,21.6,21.2,00.0,30.5,23.4,08.8,0000.0,0008.00,0005.42,0005.08
2022-02-17 23:30:00,,0823.9,5.00,0.00,21.7,21.2,00.0,30.6,23.4,08.8,0000.0,0008.15,0005.39,0005.08
2022-02-17 23:31:00,,0823.8,5.01,0.00,21.7,21.3,00.0,30.6,23.4,08.8,0000.0,0008.06,0005.38,0005.08
2022-02-17 23:32:00,,0823.8,5.01,0.00,21.7,21.3,00.0,30.6,23.5,08.9,0000.0,0008.05,0005.37,0005.08
2022-02-17 23:33:00,,0823.8,4.99,0.00,21.7,21.3,00.0,30.6,23.5,08.8,0000.0,0008.00,0005.37,0005.09
2022-02-17 23:34:00,,0823.8,4.99,0.00,21.7,21.3,00.0,30.6,23.5,08.7,0000.0,0007.97,0005.38,0005.10
2022-02-17 23:35:00,,0823.8,5.01,0.00,21.8,21.3,00.0,30.6,23.5,08.7,0000.0,0008.04,0005.41,0005.12
2022-02-17 23:36:00,,0823.8,4.99,0.00,21.8,21.3,00.0,30.6,23.5,08.7,0000.0,0008.12,0005.43,0005.14
2022-02-17 23:37:00,,0823.8,5.00,0.00,21.8,21.3,00.0,30.7,23.5,08.9,0000.0,0008.90,0005.43,0005.15
2022-02-17 23:38:00,,0823.8,4.99,0.00,21.8,21.3,00.0,30.7,23.6,08.8,0000.1,0009.35,0005.43,0005.14
2022-02-17 23:39:00,,0823.8,5.00,0.00,21.8,21.3,00.0,30.7,23.6,08.8,-000.1,0010.00,0005.41,0005.14
2022-02-17 23:40:00,,0823.8,5.01,0.00,21.8,21.3,00.0,30.7,23.6,08.7,0000.0,0010.07,0005.43,0005.15
2022-02-17 23:41:00,,0823.9,5.00,0.00,21.8,21.3,00.0,30.7,23.6,08.8,0000.2,0009.88,0005.45,0005.15
2022-02-17 23:42:00,,0823.8,5.00,0.00,21.9,21.3,00.0,30.7,23.7,08.8,0000.9,0009.93,0005.46,0005.15
2022-02-17 23:43:00,,0823.9,4.99,0.00,21.9,21.3,00.0,30.7,23.7,09.0,0000.8,0009.97,0005.48,0005.17
2022-02-17 23:44:00,,0823.9,5.01,0.00,21.9,21.3,00.0,30.7,23.7,09.0,0000.6,0009.97,0005.49,0005.17
2022-02-17 23:45:00,,0823.8,5.00,0.00,21.9,21.4,00.0,30.8,23.8,08.9,0001.4,0009.89,0005.47,0005.18
2022-02-17 23:46:00,,0823.8,4.99,0.00,22.0,21.4,00.0,30.8,23.8,08.9,0001.4,0009.79,0005.44,0005.17
2022-02-17 23:47:00,,0823.8,4.99,0.00,22.0,21.4,00.0,30.8,23.8,08.8,0001.2,0009.76,0005.44,0005.16
2022-02-17 23:48:00,,0823.8,5.00,0.00,22.0,21.4,00.0,30.8,23.8,08.8,0000.7,0008.85,0005.42,0005.16
2022-02-17 23:49:00,,0823.8,5.03,0.00,22.0,21.5,00.0,30.8,23.8,08.7,0000.0,0008.44,0005.45,0005.18
2022-02-17 23:50:00,,0823.8,4.99,0.00,22.0,21.5,00.0,30.8,23.9,08.9,0000.4,0007.77,0005.48,0005.19
2022-02-17 23:51:00,,0823.7,4.99,0.00,22.0,21.5,00.0,30.9,23.9,08.8,0000.0,0007.60,0005.43,0005.18
2022-02-17 23:52:00,,0823.6,5.01,0.00,22.1,21.5,00.0,30.9,23.9,08.7,0000.0,0007.57,0005.44,0005.19
2022-02-17 23:53:00,,0823.7,5.00,0.00,22.1,21.5,00.0,30.9,23.9,08.7,0000.0,0007.57,0005.46,0005.18
2022-02-17 23:54:00,,0823.6,5.00,0.00,22.1,21.5,00.0,30.9,23.9,08.7,0000.0,0007.60,0005.46,0005.18
2022-02-17 23:55:00,,0823.7,4.98,0.00,22.1,21.5,00.0,30.9,24.0,08.6,0000.0,0007.59,0005.47,0005.18
2022-02-17 23:56:00,,0823.7,5.00,0.00,22.1,21.5,00.0,30.9,24.0,08.6,0000.0,0007.67,0005.50,0005.18
2022-02-17 23:57:00,,0823.7,5.00,0.00,22.1,21.6,00.0,31.0,24.0,08.6,0000.0,0007.99,0005.49,0005.18
2022-02-17 23:58:00,,0823.7,5.00,0.00,22.2,21.6,00.0,31.0,24.0,08.6,0000.0,0008.24,0005.48,0005.18
2022-02-17 23:59:00,,0823.7,5.00,0.00,22.2,21.6,00.0,31.0,24.0,08.6,0000.0,0008.27,0005.49,0005.17
